KE0QIB Weather Reports


time (UTC)temp
C
wind
direction
speed
KPH
gust
KPH
rain 1hr
cm
rain 24hr
cm
rain mn
cm
humidity
%
barometer
mb
20260507155646 12 80 1.6 6.4 0.00 0.00 0.00 33 996.3
20260507155146 12 80 1.6 6.4 0.00 0.00 0.00 32 996.2
20260507154646 12 80 1.6 3.2 0.00 0.00 0.00 32 996.2
20260507154146 12 80 1.6 6.4 0.00 0.00 0.00 30 996.2
20260507153646 12 80 3.2 6.4 0.00 0.00 0.00 31 996.2
20260507153146 12 76 3.2 6.4 0.00 0.00 0.00 30 996.2
20260507152646 12 74 1.6 6.4 0.00 0.00 0.00 32 996.2
20260507152146 12 74 1.6 3.2 0.00 0.00 0.00 34 995.8
20260507151647 12 74 3.2 4.8 0.00 0.00 0.00 31 995.8
20260507151147 12 74 4.8 9.7 0.00 0.00 0.00 31 995.8
20260507150647 12 74 3.2 9.7 0.00 0.00 0.00 32 995.8
20260507150147 12 112 3.2 8.0 0.00 0.00 0.00 32 995.8
20260507145647 12 148 3.2 4.8 0.00 0.00 0.00 32 995.8
20260507145147 12 63 1.6 6.4 0.00 0.00 0.00 33 996.0
20260507144647 12 62 3.2 8.0 0.00 0.00 0.00 31 996.0
20260507144147 12 53 3.2 4.8 0.00 0.00 0.00 30 996.0
20260507143647 12 53 3.2 6.4 0.00 0.00 0.00 30 996.0
20260507143147 12 51 1.6 6.4 0.00 0.00 0.00 32 996.0
20260507142647 11 51 3.2 6.4 0.00 0.00 0.00 34 996.0
20260507142147 11 51 3.2 8.0 0.00 0.00 0.00 31 996.0
20260507141647 11 51 3.2 11.3 0.00 0.00 0.00 31 996.0
20260507141147 11 98 3.2 6.4 0.00 0.00 0.00 34 996.0
20260507140647 11 98 3.2 6.4 0.00 0.00 0.00 34 995.8
20260507140147 11 98 3.2 8.0 0.00 0.00 0.00 32 995.8
20260507135647 10 192 1.6 6.4 0.00 0.00 0.00 33 995.8
20260507135147 10 194 0.0 6.4 0.00 0.00 0.00 34 996.0
20260507134647 10 196 0.0 0.0 0.00 0.00 0.00 34 996.0
20260507134147 10 196 0.0 0.0 0.00 0.00 0.00 35 996.0
20260507133647 9 196 0.0 0.0 0.00 0.00 0.00 40 995.6
20260507133147 9 196 0.0 0.0 0.00 0.00 0.00 41 995.6
20260507132647 9 196 0.0 0.0 0.00 0.00 0.00 45 995.6
20260507132147 9 196 0.0 0.0 0.00 0.00 0.00 41 995.3
20260507131647 9 196 0.0 0.0 0.00 0.00 0.00 43 995.3
20260507131147 8 196 0.0 0.0 0.00 0.00 0.00 39 995.3
20260507130647 8 196 0.0 0.0 0.00 0.00 0.00 39 995.5
20260507130147 7 196 0.0 0.0 0.00 0.00 0.00 41 995.5
20260507125647 7 196 0.0 0.0 0.00 0.00 0.00 43 995.5
20260507125147 6 196 0.0 0.0 0.00 0.00 0.00 45 995.8
20260507124647 6 196 0.0 0.0 0.00 0.00 0.00 46 995.8
20260507124147 6 196 0.0 0.0 0.00 0.00 0.00 46 995.8
20260507123647 5 196 1.6 0.0 0.00 0.00 0.00 44 995.6
20260507123147 5 196 1.6 3.2 0.00 0.00 0.00 44 995.6
20260507122647 5 196 1.6 3.2 0.00 0.00 0.00 44 995.6
20260507122147 5 196 1.6 3.2 0.00 0.00 0.00 43 995.6
20260507121647 5 196 1.6 3.2 0.00 0.00 0.00 44 995.6
20260507121147 5 196 1.6 3.2 0.00 0.00 0.00 43 995.6
20260507120647 4 196 3.2 3.2 0.00 0.00 0.00 44 995.6
20260507120147 4 196 3.2 3.2 0.00 0.00 0.00 44 995.6
20260507115647 4 196 3.2 3.2 0.00 0.00 0.00 45 995.6
20260507115147 3 196 3.2 4.8 0.00 0.00 0.00 46 995.9
20260507114647 3 196 3.2 4.8 0.00 0.00 0.00 45 995.9
20260507114147 3 196 3.2 4.8 0.00 0.00 0.00 45 995.9
20260507113647 3 196 3.2 4.8 0.00 0.00 0.00 46 995.6
20260507113147 3 196 3.2 4.8 0.00 0.00 0.00 45 995.6
20260507112647 3 196 3.2 4.8 0.00 0.00 0.00 46 995.6
20260507112147 3 196 3.2 4.8 0.00 0.00 0.00 44 995.3
20260507111647 3 196 4.8 4.8 0.00 0.00 0.00 45 995.3
20260507111147 3 196 4.8 4.8 0.00 0.00 0.00 44 995.3
20260507110647 3 196 4.8 4.8 0.00 0.00 0.00 45 995.0
20260507110147 3 196 4.8 6.4 0.00 0.00 0.00 45 995.0
20260507105647 3 196 4.8 6.4 0.00 0.00 0.00 45 995.0
20260507105147 3 196 3.2 6.4 0.00 0.00 0.00 45 995.0
20260507104647 3 186 3.2 4.8 0.00 0.00 0.00 44 995.0
20260507104147 3 186 3.2 4.8 0.00 0.00 0.00 44 994.9
20260507103647 3 186 3.2 4.8 0.00 0.00 0.00 43 994.9
20260507103147 3 186 3.2 4.8 0.00 0.00 0.00 43 994.9
20260507102647 3 186 3.2 4.8 0.00 0.00 0.00 43 994.9
20260507102147 4 186 3.2 4.8 0.00 0.00 0.00 43 994.9
20260507101647 4 186 3.2 4.8 0.00 0.00 0.00 42 994.9
20260507101147 4 186 3.2 4.8 0.00 0.00 0.00 42 994.9
20260507100647 4 186 3.2 4.8 0.00 0.00 0.00 41 995.0
20260507100147 4 186 3.2 4.8 0.00 0.00 0.00 41 995.0
20260507095647 4 186 3.2 4.8 0.00 0.00 0.00 42 995.0
20260507095147 4 186 3.2 4.8 0.00 0.00 0.00 42 995.0
20260507094647 4 186 3.2 4.8 0.00 0.00 0.00 41 995.0
20260507094147 4 186 3.2 4.8 0.00 0.00 0.00 41 995.0
20260507093647 4 186 3.2 4.8 0.00 0.00 0.00 42 994.9
20260507093147 4 186 3.2 4.8 0.00 0.00 0.00 42 994.9
20260507092647 4 186 3.2 4.8 0.00 0.00 0.00 42 994.7
20260507092147 4 186 3.2 4.8 0.00 0.00 0.00 42 994.7
20260507091647 4 186 3.2 4.8 0.00 0.00 0.00 42 994.7
20260507091147 4 186 3.2 4.8 0.00 0.00 0.00 41 994.7
20260507090647 4 186 3.2 4.8 0.00 0.00 0.00 41 994.6
20260507090147 4 186 3.2 4.8 0.00 0.00 0.00 42 994.6
20260507085647 4 186 3.2 4.8 0.00 0.00 0.00 41 994.6
20260507085147 5 186 3.2 4.8 0.00 0.00 0.00 42 994.7
20260507084647 5 186 3.2 4.8 0.00 0.00 0.00 42 994.7
20260507084147 5 186 3.2 4.8 0.00 0.00 0.00 41 994.7
20260507083647 5 186 3.2 4.8 0.00 0.00 0.00 42 994.7
20260507083147 5 186 3.2 4.8 0.00 0.00 0.00 41 994.7
20260507082647 5 186 3.2 4.8 0.00 0.00 0.00 41 994.7
20260507082147 5 186 3.2 4.8 0.00 0.00 0.00 42 994.8
20260507081647 5 186 3.2 4.8 0.00 0.00 0.00 42 994.8
20260507081147 5 186 3.2 4.8 0.00 0.00 0.00 42 994.8
20260507080647 5 186 3.2 4.8 0.00 0.00 0.00 41 995.0
20260507080147 5 186 3.2 4.8 0.00 0.00 0.00 42 995.0
20260507075647 5 186 3.2 4.8 0.00 0.00 0.00 41 995.0
20260507075148 5 186 3.2 4.8 0.00 0.00 0.00 42 995.1
20260507074647 5 186 3.2 4.8 0.00 0.00 0.00 42 995.1
20260507074148 5 186 3.2 4.8 0.00 0.00 0.00 42 995.1
20260507073648 5 186 3.2 4.8 0.00 0.00 0.00 41 995.1
20260507073147 5 186 3.2 4.8 0.00 0.00 0.00 42 995.1
20260507072648 5 186 3.2 4.8 0.00 0.00 0.00 42 995.1
20260507072148 5 186 3.2 4.8 0.00 0.00 0.00 41 995.3
20260507071648 5 186 1.6 3.2 0.00 0.00 0.00 41 995.3
20260507071148 4 186 1.6 4.8 0.00 0.00 0.00 41 995.3
20260507070648 4 186 0.0 3.2 0.00 0.00 0.00 41 995.3
20260507070148 4 186 0.0 0.0 0.00 0.00 0.00 42 995.3
20260507065648 4 186 0.0 0.0 0.00 0.00 0.00 41 995.3
20260507065148 4 186 0.0 0.0 0.00 0.00 0.00 42 995.4
20260507064648 4 186 0.0 0.0 0.00 0.00 0.00 41 995.4
20260507064148 4 186 0.0 0.0 0.00 0.00 0.00 41 995.4
20260507063648 4 186 0.0 0.0 0.00 0.00 0.00 41 995.6
20260507063148 4 186 0.0 0.0 0.00 0.00 0.00 41 995.6
20260507062648 4 186 0.0 0.0 0.00 0.00 0.00 39 995.6
20260507062148 4 186 0.0 0.0 0.00 0.00 0.00 40 995.8
20260507061648 4 186 0.0 0.0 0.00 0.00 0.00 41 995.8
20260507061148 4 186 0.0 0.0 0.00 0.00 0.00 40 995.8
20260507060648 4 186 0.0 0.0 0.00 0.00 0.00 39 995.8
20260507060148 4 186 0.0 0.0 0.00 0.00 0.00 40 995.8
20260507055648 5 186 0.0 0.0 0.00 0.00 0.00 40 995.8
20260507055148 5 186 0.0 0.0 0.00 0.00 0.00 39 995.8
20260507054648 5 186 0.0 0.0 0.00 0.00 0.00 38 995.8
20260507054148 5 186 0.0 0.0 0.00 0.00 0.00 37 995.8
20260507053648 5 186 0.0 0.0 0.00 0.00 0.00 38 995.9
20260507053148 5 186 0.0 0.0 0.00 0.00 0.00 37 995.9
20260507052648 5 186 0.0 0.0 0.00 0.00 0.00 38 995.9
20260507052148 5 186 0.0 0.0 0.00 0.00 0.00 36 996.1
20260507051648 5 186 0.0 0.0 0.00 0.00 0.00 38 996.1
20260507051148 5 186 0.0 0.0 0.00 0.00 0.00 37 996.1
20260507050648 5 186 0.0 0.0 0.00 0.00 0.00 38 996.2
20260507050148 5 186 0.0 0.0 0.00 0.00 0.00 40 996.2
20260507045648 5 186 0.0 0.0 0.00 0.00 0.00 39 996.2
20260507045148 5 186 0.0 0.0 0.00 0.00 0.00 40 996.3
20260507044648 5 186 0.0 0.0 0.00 0.00 0.00 39 996.3
20260507044148 5 186 0.0 0.0 0.00 0.00 0.00 39 996.3
20260507043648 5 186 0.0 0.0 0.00 0.00 0.00 38 996.6
20260507043148 5 186 0.0 0.0 0.00 0.00 0.00 38 996.6
20260507042648 5 186 1.6 4.8 0.00 0.00 0.00 39 996.6
20260507042148 5 186 3.2 4.8 0.00 0.00 0.00 40 996.9
20260507041648 5 186 3.2 4.8 0.00 0.00 0.00 41 996.9
20260507041148 5 186 3.2 4.8 0.00 0.00 0.00 41 996.9
20260507040648 5 186 1.6 4.8 0.00 0.00 0.00 40 997.1
20260507040148 5 186 0.0 4.8 0.00 0.00 0.00 39 997.1
20260507035648 6 119 0.0 0.0 0.00 0.00 0.00 39 997.1
20260507035148 6 119 0.0 0.0 0.00 0.00 0.00 39 997.1
20260507034648 6 119 0.0 0.0 0.00 0.00 0.00 37 997.1
20260507034148 6 119 0.0 0.0 0.00 0.00 0.00 37 997.1
20260507033648 6 119 0.0 0.0 0.00 0.00 0.00 37 997.3
20260507033148 6 119 0.0 0.0 0.00 0.00 0.00 37 997.3
20260507032648 6 119 0.0 0.0 0.00 0.00 0.00 37 997.3
20260507032148 6 119 0.0 0.0 0.00 0.00 0.00 36 997.3
20260507031648 6 119 0.0 0.0 0.00 0.00 0.00 36 997.3
20260507031148 6 119 0.0 0.0 0.00 0.00 0.00 37 997.3
20260507030648 6 119 0.0 0.0 0.00 0.00 0.00 36 997.3
20260507030148 6 119 0.0 0.0 0.00 0.00 0.00 38 997.3
20260507025648 6 119 0.0 0.0 0.00 0.00 0.00 38 997.3
20260507025148 6 119 0.0 0.0 0.00 0.00 0.00 38 997.4
20260507024648 6 119 0.0 0.0 0.00 0.00 0.00 40 997.4
20260507024148 6 119 0.0 0.0 0.00 0.00 0.00 41 997.4
20260507023648 6 119 0.0 0.0 0.00 0.00 0.00 40 997.5
20260507023148 6 119 0.0 0.0 0.00 0.00 0.00 41 997.5
20260507022648 6 119 0.0 0.0 0.00 0.00 0.00 40 997.5
20260507022148 7 119 0.0 0.0 0.00 0.00 0.00 40 998.1
20260507021648 7 119 0.0 0.0 0.00 0.00 0.00 39 998.1
20260507021148 7 119 0.0 0.0 0.00 0.00 0.00 39 998.1
20260507020648 7 119 0.0 0.0 0.00 0.00 0.00 38 997.8
20260507020148 8 119 0.0 0.0 0.00 0.00 0.00 37 997.8
20260507015648 8 119 0.0 0.0 0.00 0.00 0.00 37 997.8
20260507015148 8 119 0.0 0.0 0.00 0.00 0.00 37 997.6
20260507014648 9 119 0.0 0.0 0.00 0.00 0.00 35 997.6
20260507014148 9 119 0.0 0.0 0.00 0.00 0.00 34 997.6
20260507013648 9 119 0.0 0.0 0.00 0.00 0.00 33 997.5
20260507013148 9 119 0.0 0.0 0.00 0.00 0.00 32 997.5
20260507012648 10 119 0.0 0.0 0.00 0.00 0.00 32 997.5
20260507012148 10 119 0.0 4.8 0.00 0.00 0.00 32 997.8
20260507011648 10 119 1.6 0.0 0.00 0.00 0.00 32 997.8
20260507011148 10 119 1.6 4.8 0.00 0.00 0.00 32 997.8
20260507010648 10 119 1.6 4.8 0.00 0.00 0.00 33 997.8
20260507010148 10 119 1.6 6.4 0.00 0.00 0.00 32 997.8
20260507005648 10 119 1.6 6.4 0.00 0.00 0.00 33 997.8
20260507005148 10 119 1.6 4.8 0.00 0.00 0.00 31 997.8
20260507004648 10 119 3.2 6.4 0.00 0.00 0.00 31 997.8
20260507004148 10 119 3.2 6.4 0.00 0.00 0.00 32 997.8
20260507003648 10 121 3.2 6.4 0.00 0.00 0.00 30 997.8
20260507003148 10 148 1.6 6.4 0.00 0.00 0.00 31 997.8
20260507002648 10 158 1.6 3.2 0.00 0.00 0.00 30 997.8
20260507002148 10 159 1.6 3.2 0.00 0.00 0.00 30 998.9
20260507001648 10 159 1.6 3.2 0.00 0.00 0.00 29 998.9
20260507001148 10 159 3.2 8.0 0.00 0.00 0.00 29 998.9
20260507000648 10 102 3.2 4.8 0.00 0.00 0.00 30 999.0
20260507000148 11 102 3.2 6.4 0.00 0.00 0.00 30 999.0
20260506235648 11 119 3.2 6.4 0.00 0.00 0.00 29 999.0
20260506235148 11 121 1.6 8.0 0.00 0.00 0.00 29 999.2
20260506234649 11 112 1.6 3.2 0.00 0.00 0.00 30 999.2
20260506234148 11 111 3.2 6.4 0.00 0.00 0.00 29 999.2
20260506233648 11 67 3.2 6.4 0.00 0.00 0.00 30 999.0
20260506233148 11 59 3.2 6.4 0.00 0.00 0.00 29 999.0
20260506232648 11 140 3.2 8.0 0.00 0.00 0.00 28 999.0
20260506232148 11 153 1.6 6.4 0.00 0.00 0.00 27 999.1
20260506231649 11 105 1.6 8.0 0.00 0.00 0.00 29 999.1
20260506231148 11 158 3.2 4.8 0.00 0.00 0.00 29 999.1
20260506230649 11 158 3.2 6.4 0.00 0.00 0.00 28 999.4
20260506230149 11 94 4.8 8.0 0.00 0.00 0.00 28 999.4
20260506225649 11 155 3.2 11.3 0.00 0.00 0.00 29 999.4
20260506225149 10 87 3.2 6.4 0.00 0.00 0.00 29 999.6
20260506224649 10 86 3.2 8.0 0.00 0.00 0.00 28 999.6
20260506224149 10 85 3.2 12.9 0.00 0.00 0.00 29 999.6
20260506223649 10 94 3.2 6.4 0.00 0.00 0.00 29 999.7
20260506223149 10 110 3.2 6.4 0.00 0.00 0.00 29 999.7
20260506222649 10 84 3.2 6.4 0.00 0.00 0.00 28 999.7
20260506222149 10 84 6.4 11.3 0.00 0.00 0.00 30 999.9
20260506221649 10 74 4.8 11.3 0.00 0.00 0.00 29 999.9
20260506221149 10 97 4.8 9.7 0.00 0.00 0.00 30 999.9
20260506220649 10 107 3.2 9.7 0.00 0.00 0.00 30 1000.3
20260506220149 10 163 3.2 6.4 0.00 0.00 0.00 30 1000.3
20260506215649 10 87 4.8 6.4 0.00 0.00 0.00 29 1000.3
20260506215149 10 74 4.8 11.3 0.00 0.00 0.00 30 1000.4
20260506214649 10 61 4.8 9.7 0.00 0.00 0.00 29 1000.4
20260506214149 10 31 4.8 11.3 0.00 0.00 0.00 29 1000.7
20260506213649 10 53 4.8 9.7 0.00 0.00 0.00 31 1000.7
20260506213149 10 101 3.2 9.7 0.00 0.00 0.00 30 1000.7
20260506212649 10 103 3.2 8.0 0.00 0.00 0.00 28 1000.7
20260506212149 10 92 3.2 8.0 0.00 0.00 0.00 29 1001.0
20260506211649 11 110 3.2 8.0 0.00 0.00 0.00 30 1001.0
20260506211149 10 108 4.8 6.4 0.00 0.00 0.00 33 1001.0
20260506210649 10 109 4.8 9.7 0.00 0.00 0.00 30 1001.1
20260506210149 10 111 3.2 9.7 0.00 0.00 0.00 31 1001.1
20260506205649 10 126 3.2 6.4 0.00 0.00 0.00 28 1001.1
20260506205149 10 101 4.8 8.0 0.00 0.00 0.00 29 1001.5
20260506204649 10 171 4.8 9.7 0.00 0.00 0.00 29 1001.5
20260506204149 10 80 4.8 11.3 0.00 0.00 0.00 32 1001.5
20260506203649 10 81 6.4 17.7 0.00 0.00 0.00 30 1001.6
20260506203149 10 84 4.8 8.0 0.00 0.00 0.00 30 1001.6
20260506202649 10 131 4.8 9.7 0.00 0.00 0.00 29 1001.6
20260506202149 10 94 4.8 11.3 0.00 0.00 0.00 32 1001.7
20260506201649 10 154 4.8 8.0 0.00 0.00 0.00 30 1001.7
20260506201149 10 79 4.8 11.3 0.00 0.00 0.00 31 1001.7
20260506200649 10 94 4.8 11.3 0.00 0.00 0.00 32 1001.8
20260506200149 10 94 3.2 8.0 0.00 0.00 0.00 32 1001.8
20260506195649 10 90 3.2 8.0 0.00 0.00 0.00 30 1001.8
20260506195149 10 82 4.8 12.9 0.00 0.00 0.00 32 1002.2
20260506194649 10 155 6.4 9.7 0.00 0.00 0.00 31 1002.2
20260506194149 10 103 6.4 11.3 0.00 0.00 0.00 31 1002.2
20260506193649 10 116 4.8 16.1 0.00 0.00 0.00 32 1002.4
20260506193149 10 95 4.8 11.3 0.00 0.00 0.00 33 1002.4
20260506192649 9 60 4.8 6.4 0.00 0.00 0.00 33 1002.4
20260506192149 9 85 4.8 9.7 0.00 0.00 0.00 31 1002.3
20260506191649 9 65 3.2 6.4 0.00 0.00 0.00 32 1002.3
20260506191149 9 57 4.8 8.0 0.00 0.00 0.00 31 1002.3
20260506190649 10 86 3.2 9.7 0.00 0.00 0.00 34 1002.4
20260506190149 9 80 4.8 8.0 0.00 0.00 0.00 34 1002.4
20260506185649 10 69 4.8 8.0 0.00 0.00 0.00 31 1002.4
20260506185149 10 19 4.8 8.0 0.00 0.00 0.00 33 1002.8
20260506184649 10 74 6.4 14.5 0.00 0.00 0.00 32 1002.8
20260506184149 10 60 6.4 11.3 0.00 0.00 0.00 33 1002.8
20260506183649 10 316 6.4 16.1 0.00 0.00 0.00 32 1002.8
20260506183149 10 91 6.4 11.3 0.00 0.00 0.00 30 1002.8
20260506182649 10 83 4.8 9.7 0.00 0.00 0.00 33 1002.8
20260506182149 10 96 4.8 11.3 0.00 0.00 0.00 35 1003.1
20260506181649 9 105 6.4 8.0 0.00 0.00 0.00 33 1003.1
20260506181150 9 21 6.4 9.7 0.00 0.00 0.00 33 1003.1
20260506180649 9 45 8.0 19.3 0.00 0.00 0.00 32 1003.3
20260506180149 9 59 6.4 12.9 0.00 0.00 0.00 35 1003.3
20260506175649 8 17 4.8 16.1 0.00 0.00 0.00 34 1003.3
20260506175149 8 84 6.4 11.3 0.00 0.00 0.00 33 1003.6
20260506174649 8 44 4.8 12.9 0.00 0.00 0.00 33 1003.6
20260506174149 8 142 4.8 11.3 0.00 0.00 0.00 33 1003.6
20260506173649 8 136 4.8 14.5 0.00 0.00 0.00 32 1004.1
20260506173149 8 26 3.2 11.3 0.00 0.00 0.00 31 1004.1
20260506172649 8 219 4.8 8.0 0.00 0.00 0.00 32 1004.1
20260506172149 8 118 4.8 9.7 0.00 0.00 0.00 33 1004.0
20260506171649 7 342 4.8 20.9 0.00 0.00 0.00 34 1004.0
20260506171149 7 339 4.8 17.7 0.00 0.00 0.00 34 1004.0
20260506170649 7 11 3.2 11.3 0.00 0.00 0.00 33 1004.1
20260506170149 7 42 4.8 9.7 0.00 0.00 0.00 36 1004.1
20260506165649 7 158 4.8 11.3 0.00 0.00 0.00 35 1004.1
20260506165149 7 355 4.8 14.5 0.00 0.00 0.00 35 1004.7
20260506164649 7 44 3.2 8.0 0.00 0.00 0.00 34 1004.7
20260506164149 7 30 3.2 9.7 0.00 0.00 0.00 35 1004.7
20260506163650 7 71 4.8 11.3 0.00 0.00 0.00 36 1004.9
20260506163149 7 61 4.8 11.3 0.00 0.00 0.00 36 1004.9
20260506162649 7 355 6.4 11.3 0.00 0.00 0.00 36 1004.9
20260506162149 7 14 6.4 14.5 0.00 0.00 0.00 34 1004.8
20260506161649 6 265 4.8 9.7 0.00 0.00 0.00 37 1004.8
20260506161149 6 76 4.8 8.0 0.00 0.00 0.00 35 1004.8
20260506160649 6 37 4.8 11.3 0.00 0.00 0.00 35 1004.8
20260506160149 6 36 3.2 12.9 0.00 0.00 0.00 35 1004.8